Find Starlink 34512

NORAD ID: 64419 Int'l Des: 2025-129 Owner: SPXS Country: US Constellation: starlink operational
LEOCIRCULAR

現在のビュー

3D地球を読み込み中...

About Starlink 34512

Starlink 34512 (NORAD 64419) is a starlink constellation satellite (v2 mini) launched Jun 17, 2025 by SPXS of US. It operates in LEO, CIRCULAR orbit with a mass of 575.00 kg.

次回通過

Passes for default location (London). Set your location on the main map for personalized predictions.

高度履歴

Loading altitude history...

軌道要素

1 64419U 25129H 26263.44762671 .00012715 00000-0 44556-3 0 9992
2 64419 69.9995 300.8687 0004277 283.4767 76.5932 15.29610545 70469
Epoch: Sep 20, 2026 • Age: 15 hours

現在のステータス

高度 483.1 km
遠地点 / 近地点 N/A
速度 7.62 km/s
衛星直下点 -18.05°S, 100°E
打ち上げ日 Jun 17, 2025
運用期間 1.2 years
タイプ internet

技術仕様

分類 Payload
質量 575.00 kg
乾燥質量 530.00 kg
長さ 0.30 m
スパン 29.00 m
形状 ? Box + pan
製造者 SPXS
バスタイプ Starlink V2MO
フェーズステータス In Orbit
所有者/国 SPXS/US

Most Searched